Lid_Strength_Index
-1 -1 -1 -1 -1 -1 -1 -1 -1 -1 -1 -1 -1 -0 -0 -1 -2 -1 -1 -2 -1 -1 -1 -1 -1 -1 -1 -1 -1 -1 -1 -1 -1 -1 -1 -1 -1 -1 -2 -1 -1 -1 -1
-1 -1 -0 -1 -1 -2 -1 -1 -1 -1 -1 -1 -1 -1 -1 -1 -1 -2 -1 -2 -2 -1 -1 -1 -1 -1 -1 -1 -1 -1 -1 -1 -1 -1 -1 -1 -1 -1 -2 -1 -1 -0 0
-1 -1 -1 -1 -1 -2 -2 -1 -1 -1 -1 -1 -1 -1 -1 -1 -1 -1 -1 -2 -2 -1 -1 -1 -1 -1 -1 -1 -1 -1 -1 -1 -1 -1 -1 -1 -1 -1 -2 -1 -0 0 1
-1 -1 -1 -0 -1 -1 -1 -0 -0 -0 -0 -0 -0 -0 -1 -1 -1 -1 -1 -2 -2 -1 -1 -2 -2 -1 -1 -1 -1 -1 -1 -1 -1 -1 -1 -1 -1 -1 -1 -0 0 1 1
-1 -1 -1 -1 -1 -0 0 -0 -0 -0 0 0 -0 -0 -0 -0 -1 -1 -1 -1 -2 -2 -2 -2 -2 -1 -1 -1 -1 -1 -1 -1 -1 -1 -1 -1 -2 -1 -1 -0 0 1 1
-1 -1 -1 -1 -0 0 -0 -0 -0 -0 0 0 0 0 -0 -0 -1 -1 -1 -1 -1 -2 -2 -2 -2 -1 -1 -1 -1 -1 -1 -2 -1 -2 -1 -1 -2 -1 -0 -0 1 1 1
-1 -1 -1 -1 -1 0 0 -0 0 0 1 -0 1 1 1 -0 -0 -0 -1 -1 -1 -1 -2 -1 -1 -2 -1 -1 -1 -1 -2 -2 -1 -1 -1 -1 -1 -1 -0 0 1 1 1
-1 -1 -1 -0 -1 0 -0 -0 0 1 1 -0 2 2 4 2 1 -0 -1 -0 -1 -1 -1 -1 -1 -2 -2 -2 -2 -1 -1 -2 -2 -0 -1 -0 -1 -0 1 1 0 1 1
-1 -1 -1 -1 -1 -1 -0 -0 -0 1 2 0 0 2 4 5 3 1 0 0 -0 -1 -1 -1 -1 -1 -1 -1 -1 -1 -1 -1 -1 -1 -1 -1 0 1 0 0 0 1 0
-1 -1 -1 -1 -1 -1 -0 -0 -0 0 0 2 1 0 0 1 4 5 1 1 0 0 -0 -0 -1 -1 -1 -1 -1 -1 -1 -1 -0 -0 0 1 1 1 0 0 0 -0 -0
-1 -1 -1 -1 -1 -1 -1 -1 -0 -0 -0 1 1 1 1 1 1 2 5 3 1 0 -0 -0 -0 -1 -1 -1 -0 -0 -0 0 1 1 1 1 0 -0 -0 -0 -1 -1 -1
-0 -1 -1 -1 -1 -1 -0 -0 -1 -0 -0 -0 0 1 2 2 2 2 3 3 3 1 0 -0 -0 -0 -0 -0 -0 1 2 2 2 2 2 0 -1 -1 -1 -1 -1 -1 -1
1 -0 -1 -1 -1 -1 -1 -1 -0 -0 -0 0 0 1 1 1 -0 1 2 3 4 2 2 1 0 0 0 1 1 1 1 2 2 2 2 1 0 -1 -2 -2 -1 -1 -1
0 -1 -1 -1 -1 -1 -1 -1 -0 -0 -0 0 0 -0 -0 0 -0 0 1 3 5 3 3 3 1 1 1 1 1 1 1 2 3 3 3 2 2 0 0 -1 -1 -1 -1
-0 -1 -1 -1 -1 -1 -1 -1 -0 -0 -0 0 -0 -0 -0 -0 -0 -1 -0 1 3 5 5 3 3 1 1 1 1 1 2 3 2 3 3 2 2 1 1 1 1 0 0
-1 -1 -0 -1 -1 -1 -1 -0 -0 -0 0 0 0 1 0 0 -0 -1 0 0 1 3 5 3 2 1 1 1 1 2 1 2 2 2 2 2 3 2 2 2 1 1 -0
-1 -0 -0 -0 -1 -0 -1 -0 0 0 0 1 0 1 0 -0 0 0 0 0 1 2 4 3 2 1 1 1 1 1 0 1 1 2 2 2 3 3 2 2 1 -0 -1
-1 -0 -0 -0 -0 -0 -0 0 1 1 1 1 1 1 1 1 0 0 1 1 1 1 3 4 2 2 2 1 1 1 0 0 -0 2 2 3 4 3 3 2 1 1 2
-0 -0 -0 0 0 0 0 0 0 1 1 1 1 1 1 1 1 1 1 1 2 1 2 3 3 2 1 1 2 0 0 -0 1 2 3 4 4 4 3 2 2 3 4
-0 -0 -0 -0 0 0 0 0 0 1 1 1 0 0 0 1 1 1 1 1 1 2 2 2 3 3 2 1 1 2 2 2 2 2 3 3 3 3 2 2 3 4 6
-0 -0 -0 -0 -0 0 0 0 1 0 1 1 1 1 1 1 3 1 1 1 1 2 2 3 3 3 3 3 2 1 3 3 1 2 2 1 0 1 2 4 4 4 5
0 -0 0 0 0 0 7 4 1 1 0 1 1 1 0 1 4 5 5 5 1 1 2 3 4 4 3 2 2 2 2 3 3 -1 -0 0 0 2 2 2 5 6 6
-0 0 0 0 0 0 7 7 6 0 0 1 0 0 1 0 1 1 5 5 5 6 3 1 3 3 2 1 0 1 1 1 1 -0 -0 2 1 2 3 4 6 6 6
0 1 0 0 0 0 8 8 6 -0 0 0 0 0 0 1 0 0 1 1 1 1 -0 1 1 1 -0 -0 -1 -1 -0 -0 -0 -1 -1 2 1 2 2 4 6 7 7
1 1 0 0 0 0 8 8 4 1 0 1 0 0 0 0 8 7 0 1 1 2 7 7 5 6 6 5 2 -0 1 1 2 1 -1 0 0 2 3 4 5 7 7
0 0 1 0 2 0 9 9 4 1 1 1 0 -0 7 1 9 7 0 1 1 1 0 0 -0 3 2 2 4 -2 -0 1 2 2 -0 1 1 2 3 2 3 4 5